Skip Page Navigation
NASA JPL Caltech
NASA Logo - Jet Propulsion Laboratory + View the NASA Portal
+ Center for Near-Earth Object Studies
JPL Home Earth Solar System Stars & Galaxies Technology
JPL Solar System Dynamics
BODIES ORBITS EPHEMERIDES TOOLS PHYSICAL DATA DISCOVERY FAQ SITE MAP
IMPORTANT: The SSD Announcement email list is now available. Major changes are coming in the near future, including possible hostname and/or URL changes. To be notified of such changes, subscribe to this email list.

Please visit this page for more details.


JPL Small-Body Database Browser
Search: [ help ]  
183570 (2003 QJ3)
Classification: Main-belt Asteroid          SPK-ID: 2183570
Ephemeris | Orbit Diagram | Orbital Elements | Mission Design | Physical Parameters | Discovery Circumstances | Close-Approach Data ]

[ hide orbit diagram ]

For accurate long-term ephemerides, please instead use our Horizons system.This orbit viewer was implemented using two-body methods, and hence should not be used for determining accurate long-term trajectories (over several years or decades) or planetary encounter circumstances.


[ revert to old Java-based viewer ]

Orbital Elements at Epoch 2458600.5 (2019-Apr-27.0) TDB
Reference: JPL 14 (heliocentric ecliptic J2000)
 Element Value Uncertainty (1-sigma)   Units 
e .1961536460768563 7.6194e-08  
a 2.330102022479393 1.6818e-08 au
q 1.873044015039003 1.7527e-07 au
i 1.666023493301664 6.754e-06 deg
node 218.7537313016454 0.00014469 deg
peri 190.8542135460135 0.00014566 deg
M 89.21751748207492 1.3365e-05 deg
tp 2458278.535146212131
(2018-Jun-09.03514621)
4.6988e-05 TDB
period 1299.154590206126
3.56
1.4065e-05
3.851e-08
d
yr
n .2771032814061657 3e-09 deg/d
Q 2.787160029919782 2.0117e-08 au
  Orbit Determination Parameters
   # obs. used (total)      299  
   data-arc span      6638 days (18.17 yr)  
   first obs. used      2001-01-02  
   last obs. used      2019-03-07  
   planetary ephem.      DE431  
   SB-pert. ephem.      SB431-N16  
   condition code      0  
   norm. resid. RMS      .5555  
   source      ORB  
   producer      Otto Matic  
   solution date      2019-Jul-14 10:03:39  

Additional Information
 Earth MOID = .882945 au 
 Jupiter MOID = 2.58706 au 
 T_jup = 3.545 
[ show covariance matrix ]

Ephemeris | Orbit Diagram | Orbital Elements | Mission Design | Physical Parameters | Discovery Circumstances | Close-Approach Data ]

Physical Parameter Table
Parameter Symbol Value Units Sigma Reference Notes
absolute magnitude H 17.3   n/a MPO314488  

183570 (2003 QJ3)          Discovered 2003-Aug-19 by CINEOS at Campo Imperatore
Reference: 20080420/Numbers.arcLast Updated: 2008-04-23

[ show close-approach data ]
Ephemeris | Orbit Diagram | Orbital Elements | Mission Design | Physical Parameters | Discovery Circumstances | Close-Approach Data ]
ABOUT SSD CREDITS/AWARDS PRIVACY/COPYRIGHT GLOSSARY LINKS
FirstGov 2019-Dec-13 06:09 UT
(server date/time)  
NASA Home Page
Site Manager:   Ryan S. Park
Webmaster  Alan B. Chamberlin